Location: R�o Tuerlos
(40.6704°N, 4.4622°W)
Time: 21:10:12
(UTC+00:00)

Cosmos 1869 - Pass Details

Date: 07 June 2020
Orbit: 519 x 563 km, 82.5° (Epoch: 09 July)

Event Time Altitude Azimuth Distance (km) Brightness Sun altitude
Rises 03:02:17 0° 339° (NNW) 2,655 7.2 -15.8°
Reaches altitude 10° 03:04:40 10° 327° (NNW) 1,760 6.1 -15.5°
Maximum altitude 03:07:52 26° 270° (W) 1,062 4.4 -15.1°
Enters shadow 03:08:35 24° 251° (WSW) 1,105 4.4 -15.0°
